Weather History for KMRF - January, 2014

Change the Weather History Date:

Thursday, January 30, 2014

  Actual Average Record
Temperature  
Mean Temperature 46 °F -  
Max Temperature 71 °F 57 °F 71 °F (2014)
Min Temperature 21 °F 27 °F 10 °F (2009)
Degree Days  
Heating Degree Days 19    
Moisture  
Dew Point 17 °F    
Average Humidity 38    
Maximum Humidity 64    
Minimum Humidity 16    
Precipitation  
Precipitation 0.00 in - - ()
Sea Level Pressure  
Sea Level Pressure 30.01 in    
Wind  
Wind Speed 7 mph (West)    
Max Wind Speed 22 mph    
Max Gust Speed 28 mph    
Visibility 10 miles    
Events      
Averages and records for this station are not official NWS values.
T = Trace of Precipitation, MM = Missing Value Source: NWS Daily Summary

Daily Weather History Graph

Daily Weather History Graph

Search for Another Location

Airport or City:

Trip Planner

Search our weather history database for the weather conditions in past years. The results will help you decide how hot, cold, wet, or windy it might be!

Date:

Astronomy

Jan. 30, 2014 Rise Set
Actual Time 7:48 AM CST 6:31 PM CST
Civil Twilight 7:22 AM CST 6:56 PM CST
Nautical Twilight 6:53 AM CST 7:25 PM CST
Astronomical Twilight 6:25 AM CST 7:53 PM CST
Moon 7:18 AM CST (1/30) 6:41 PM CST (1/30)
Length of Visible Light 11h 33m
Length of Day
10h 43m
Waning Crescent, 0% of the Moon is Illuminated
Jan 30
Waning Crescent
Jan 30
New
Feb 6
First Quarter
Feb 14
Full
Feb 22
Last Quarter

Hourly Weather History & Observations

Time (CST) Temp. Windchill Dew Point Humidity Pressure Visibility Wind Dir Wind Speed Gust Speed Precip Events Conditions
12:15 AM 24.8 °F - 8.6 °F 50% 30.07 in 10.0 mi Calm Calm - N/A   Clear
12:35 AM 21.2 °F 13.6 °F 6.8 °F 54% 30.07 in 10.0 mi North 5.8 mph - N/A   Clear
12:55 AM 23.0 °F 15.8 °F 10.4 °F 59% 30.06 in 10.0 mi NE 5.8 mph - N/A   Clear
1:15 AM 24.8 °F 19.1 °F 10.4 °F 54% 30.06 in 10.0 mi NE 4.6 mph - N/A   Clear
1:35 AM 24.8 °F 19.1 °F 10.4 °F 54% 30.05 in 10.0 mi NE 4.6 mph - N/A   Clear
1:55 AM 24.8 °F 19.1 °F 10.4 °F 54% 30.05 in 10.0 mi NE 4.6 mph - N/A   Clear
2:15 AM 24.8 °F 20.5 °F 10.4 °F 54% 30.05 in 10.0 mi NE 3.5 mph - N/A   Clear
2:35 AM 24.8 °F 20.5 °F 10.4 °F 54% 30.04 in 10.0 mi NE 3.5 mph - N/A   Clear
2:55 AM 24.8 °F 19.1 °F 10.4 °F 54% 30.03 in 10.0 mi NE 4.6 mph - N/A   Clear
3:15 AM 21.2 °F 14.9 °F 8.6 °F 58% 30.02 in 10.0 mi NE 4.6 mph - N/A   Clear
3:35 AM 23.0 °F 17.0 °F 10.4 °F 59% 30.03 in 10.0 mi North 4.6 mph - N/A   Clear
3:55 AM 23.0 °F 18.4 °F 10.4 °F 59% 30.02 in 10.0 mi NNE 3.5 mph - N/A   Clear
4:15 AM 23.0 °F 18.4 °F 10.4 °F 59% 30.01 in 10.0 mi WNW 3.5 mph - N/A   Clear
4:35 AM 23.0 °F 17.0 °F 10.4 °F 59% 30.01 in 10.0 mi West 4.6 mph - N/A   Clear
4:55 AM 23.0 °F 18.4 °F 10.4 °F 59% 30.01 in 10.0 mi WNW 3.5 mph - N/A   Clear
5:15 AM 24.8 °F 17.9 °F 10.4 °F 54% 30.00 in 10.0 mi NNW 5.8 mph - N/A   Clear
5:35 AM 24.8 °F 16.1 °F 10.4 °F 54% 30.00 in 10.0 mi North 8.1 mph - N/A   Clear
5:55 AM 26.6 °F 20.0 °F 12.2 °F 55% 30.01 in 10.0 mi NNE 5.8 mph - N/A   Clear
6:15 AM 26.6 °F 22.6 °F 10.4 °F 51% 30.01 in 10.0 mi North 3.5 mph - N/A   Clear
6:35 AM 24.8 °F - 10.4 °F 54% 30.01 in 10.0 mi Calm Calm - N/A   Clear
6:55 AM 23.0 °F 17.0 °F 10.4 °F 59% 30.01 in 10.0 mi ENE 4.6 mph - N/A   Clear
7:15 AM 23.0 °F 18.4 °F 10.4 °F 59% 30.01 in 10.0 mi NE 3.5 mph - N/A   Clear
7:35 AM 23.0 °F - 10.4 °F 59% 30.02 in 10.0 mi Calm Calm - N/A   Clear
7:55 AM 24.8 °F 20.5 °F 14.0 °F 64% 30.02 in 10.0 mi East 3.5 mph - N/A   Clear
8:15 AM 28.4 °F 24.6 °F 14.0 °F 55% 30.03 in 10.0 mi NNE 3.5 mph - N/A   Clear
8:35 AM 33.8 °F 29.6 °F 17.6 °F 52% 30.03 in 10.0 mi East 4.6 mph - N/A   Clear
8:55 AM 39.2 °F - 19.4 °F 45% 30.03 in 10.0 mi Calm Calm - N/A   Clear
9:15 AM 42.8 °F - 21.2 °F 42% 30.05 in 10.0 mi Calm Calm - N/A   Clear
9:35 AM 44.6 °F 43.1 °F 21.2 °F 39% 30.05 in 10.0 mi SSE 3.5 mph - N/A   Clear
9:55 AM 46.4 °F 42.9 °F 23.0 °F 40% 30.06 in 10.0 mi SSE 6.9 mph - N/A   Clear
10:15 AM 48.2 °F - 23.0 °F 37% 30.07 in 10.0 mi South 6.9 mph - N/A   Clear
10:35 AM 48.2 °F - 23.0 °F 37% 30.06 in 10.0 mi SSW 9.2 mph - N/A   Clear
10:55 AM 53.6 °F - 24.8 °F 33% 30.06 in 10.0 mi South 8.1 mph - N/A   Clear
11:15 AM 57.2 °F - 24.8 °F 29% 30.06 in 10.0 mi SW 12.7 mph - N/A   Clear
11:35 AM 60.8 °F - 24.8 °F 25% 30.04 in 10.0 mi SSW 16.1 mph - N/A   Clear
11:55 AM 64.4 °F - 23.0 °F 21% 30.05 in 10.0 mi SW 17.3 mph 27.6 mph N/A   Clear
12:15 PM 66.2 °F - 21.2 °F 18% 30.04 in 10.0 mi SW 21.9 mph 27.6 mph N/A   Clear
12:35 PM 66.2 °F - 21.2 °F 18% 30.03 in 10.0 mi SW 21.9 mph 25.3 mph N/A   Clear
12:55 PM 66.2 °F - 21.2 °F 18% 30.03 in 10.0 mi SW 15.0 mph - N/A   Clear
1:15 PM 66.2 °F - 21.2 °F 18% 30.01 in 10.0 mi SW 18.4 mph 26.5 mph N/A   Clear
1:35 PM 66.2 °F - 21.2 °F 18% 30.00 in 10.0 mi SW 19.6 mph 26.5 mph N/A   Clear
1:55 PM 69.8 °F - 21.2 °F 16% 29.99 in 10.0 mi SW 16.1 mph 26.5 mph N/A   Clear
2:15 PM 69.8 °F - 21.2 °F 16% 29.98 in 10.0 mi SW 20.7 mph 25.3 mph N/A   Clear
2:35 PM 69.8 °F - 21.2 °F 16% 29.97 in 10.0 mi WSW 17.3 mph 27.6 mph N/A   Clear
2:55 PM 69.8 °F - 21.2 °F 16% 29.96 in 10.0 mi WSW 18.4 mph 24.2 mph N/A   Clear
3:15 PM 68.0 °F - 21.2 °F 17% 29.96 in 10.0 mi WSW 16.1 mph 24.2 mph N/A   Clear
3:35 PM 71.6 °F - 24.8 °F 17% 29.96 in 10.0 mi WSW 20.7 mph 27.6 mph N/A   Clear
3:55 PM 69.8 °F - 23.0 °F 17% 29.96 in 10.0 mi WSW 18.4 mph 26.5 mph N/A   Clear
4:15 PM 69.8 °F - 23.0 °F 17% 29.96 in 10.0 mi West 20.7 mph 24.2 mph N/A   Clear
4:35 PM 69.8 °F - 21.2 °F 16% 29.96 in 10.0 mi WSW 18.4 mph 25.3 mph N/A   Clear
4:55 PM 69.8 °F - 21.2 °F 16% 29.95 in 10.0 mi WSW 21.9 mph 27.6 mph N/A   Clear
5:15 PM 66.2 °F - 21.2 °F 18% 29.95 in 10.0 mi WSW 19.6 mph 25.3 mph N/A   Clear
5:35 PM 66.2 °F - 21.2 °F 18% 29.96 in 10.0 mi WSW 16.1 mph 24.2 mph N/A   Clear
5:55 PM 64.4 °F - 21.2 °F 19% 29.96 in 10.0 mi SW 8.1 mph - N/A   Clear
6:15 PM 62.6 °F - 21.2 °F 20% 29.96 in 10.0 mi SW 10.4 mph - N/A   Clear
6:35 PM 60.8 °F - 21.2 °F 22% 29.96 in 10.0 mi SSW 10.4 mph - N/A   Clear
6:55 PM 60.8 °F - 21.2 °F 22% 29.96 in 10.0 mi SW 12.7 mph - N/A   Clear
7:15 PM 59.0 °F - 21.2 °F 23% 29.97 in 10.0 mi SSW 12.7 mph - N/A   Clear
7:35 PM 55.4 °F - 21.2 °F 26% 29.97 in 10.0 mi SSW 8.1 mph - N/A   Clear
7:55 PM 53.6 °F - 21.2 °F 28% 29.97 in 10.0 mi SSW 6.9 mph - N/A   Clear
8:15 PM 53.6 °F - 21.2 °F 28% 29.97 in 10.0 mi SW 4.6 mph - N/A   Clear
8:35 PM 48.2 °F - 19.4 °F 32% 29.97 in 10.0 mi West 3.5 mph - N/A   Clear
8:55 PM 46.4 °F 45.2 °F 19.4 °F 34% 29.98 in 10.0 mi WSW 3.5 mph - N/A   Clear
9:15 PM 46.4 °F 44.3 °F 19.4 °F 34% 29.98 in 10.0 mi West 4.6 mph - N/A   Clear
9:35 PM 42.8 °F 41.1 °F 17.6 °F 36% 29.98 in 10.0 mi West 3.5 mph - N/A   Clear
9:55 PM 42.8 °F - 19.4 °F 39% 29.98 in 10.0 mi Calm Calm - N/A   Clear
10:15 PM 41.0 °F 39.0 °F 19.4 °F 42% 29.98 in 10.0 mi NNE 3.5 mph - N/A   Clear
10:35 PM 41.0 °F 39.0 °F 19.4 °F 42% 29.98 in 10.0 mi NNE 3.5 mph - N/A   Clear
10:55 PM 39.2 °F 35.0 °F 19.4 °F 45% 29.98 in 10.0 mi NE 5.8 mph - N/A   Clear
11:15 PM 39.2 °F 35.0 °F 19.4 °F 45% 29.97 in 10.0 mi NE 5.8 mph - N/A   Clear
11:35 PM 39.2 °F 34.2 °F 19.4 °F 45% 29.98 in 10.0 mi NE 6.9 mph - N/A   Clear
11:55 PM 39.2 °F 35.0 °F 19.4 °F 45% 29.98 in 10.0 mi NE 5.8 mph - N/A   Clear